DELTA 1 DEB, 21472

Orbit data source: Space-Track

DELTA 1 DEB, 21472 is space debris in SSO originally from a launch on Thu, 12 Jun 1975 UTC launched from the Air Force Western Test Range (AFWTR). Debris objects in space refer to the collection of defunct objects orbiting the Earth. Examples of debris include non-operational satellites, rocket bodies, and fragments generated from explosions, collisions, or faulty payload assembly.

Loading next visibility...
Identifier
21472, 1975-052FG
Orbit
SSO
Country
Flag of USUS
Related business
Manufacturer
Unknown
Mission
Spacecraft
Bus & Motor
Unknown
Mass
Unknown
Launch date (UTC)
1975-06-12 (51 years ago)
Launch vehicle
Unknown
Launch site
Air Force Western Test Range (AFWTR)
Object type
Payload
Rocket body
Debris
Shape & HBR
Unknown shape, 0.1 m
Radar Cross Section
Medium (>0.1 m² and <1 m²)

Expand to show TLE details & history
Last TLE update: 3 days ago

TLE from 3 days ago
0 DELTA 1 DEB
1 21472U 75052FG  26171.07406944  .00000653  00000-0  77130-3 0  9991
2 21472  99.7758  37.9215 0246836 125.4345 237.0112 13.59404871732193
Epoch: 2026-06-20T01:46Z
TLE epoch observation values (Epoch: 2026-06-20T01:46:39.599Z)
Latitude
-0.00004°
Longitude
102.96259°
Altitude
1,143.458 km
Speed
7.231 km/s
True Right ascension
02h 31m 41s
True Declination
0° 00' 00"
Sunlit
Object was in daylight at epoch
Visualization orbit readout
Latitude
Unknown
Longitude
Unknown
Altitude
Unknown
Speed
Unknown
Apparent Right ascension
Unknown
Apparent Declination
Unknown
Sunlit
N/A
Visualization observer readout
Local Sidereal Time
00:51:33
Azimuth
Unknown
Elevation
Unknown
Doppler factor
Unknown
Orbital elements
Apogee altitude
1,218.132 km
Perigee altitude
852.159 km
Semi-major axis
7,413.283 km
Eccentricity
0.02468
Inclination
99.7758°
RAAN
37.9215°
Arg. of periapsis
125.4345°
True anomaly
234.67856°
Mean anomaly
237.0112°
Eccentric anomaly
235.84092°
Mean motion
3.40038 °/min
Orbital period
105.87 mins
BSTAR
0.0007713
Loading maneuver chart data...
Computing Atmospheric mass density...

Documentation

Showing up to 5 results
|